Flag for Germany Weather past 2 weeks in Giessen, Hesse, Germany

Now
54 °F

Overcast.


Feels Like: 54 °F
Forecast: 42 / 66 °F
Wind: 1 mph from West

Location: Giessen

Current Time: Aug 21, 2014 at 10:28:35 PM

Latest Report: Aug 21, 2014 at 10:00 PM


Visibility: 31 mi

Pressure: 30.02 "Hg

Humidity: 76%

Dew point: 46 °F

Location of GiessenLocation

Historic Weather in Giessen — Graph

°F

Giessen temperature yesterday

Maximum temperature yesterday: 64 °F (at 5:00 PM)
Minimum temperature yesterday: 44 °F (at 7:00 AM)
Average temperature yesterday: 54 °F

Past Weeks' High & Low Weather Summary

 TemperatureHumidityPressure
High81 °F (Aug 8, 4:00 PM)98% (Aug 8, 5:00 AM)30.09 "Hg (Aug 8, 5:00 AM)
Low44 °F (Aug 20, 7:00 AM)38% (Aug 12, 5:00 PM)29.65 "Hg (Aug 13, 5:00 PM)
Average60 °F78%29.90 "Hg
* Reported Aug 6 9:00 PM — Aug 21 9:00 PM, Giessen, Weather by CustomWeather, © 2014

Note: Actual official high and low records may vary slightly from our data, if they occured in-between our weather recording intervals... More about our weather records

Advertising

Giessen weather history for previous 24 hours

 ConditionsComfort  
Time TempWeatherWind HumidityBarometerVisibility
9:00 PM
Aug 21
56 °FOvercast.1 mph68%30.00 "Hg5 mi
8:00 PM61 °FOvercast.2 mph56%30.00 "Hg43 mi
7:00 PM62 °FSunny.5 mph48%29.99 "Hg43 mi
6:00 PM65 °FOvercast.6 mph43%29.99 "Hg17 mi
5:00 PM67 °FPartly sunny.7 mph40%30.00 "Hg22 mi
4:00 PM65 °FPartly sunny.6 mph40%30.01 "Hg34 mi
3:00 PM65 °FPassing clouds.5 mph45%30.02 "Hg19 mi
2:00 PM64 °FSunny.7 mph46%30.03 "Hg14 mi
1:00 PM62 °FScattered clouds.5 mph52%30.04 "Hg22 mi
12:00 PM60 °FPassing clouds.6 mph60%30.05 "Hg16 mi
11:00 AM58 °FPassing clouds.3 mph74%30.06 "Hg13 mi
10:00 AM54 °FSunny.3 mph82%30.06 "Hg12 mi
9:00 AM51 °FSunny.3 mph91%30.06 "Hg10 mi
8:00 AM48 °FSunny.3 mph96%30.06 "Hg7 mi
7:00 AM45 °FPassing clouds.2 mph96%30.06 "Hg6 mi
6:00 AM47 °FOvercast.3 mph95%30.04 "Hg10 mi
5:00 AM48 °FOvercast.1 mph95%30.04 "Hg16 mi
4:00 AM46 °FPassing clouds.1 mph95%30.04 "Hg19 mi
3:00 AM46 °FClear.1 mph93%30.04 "Hg19 mi
2:00 AM48 °FPassing clouds.2 mph89%30.04 "Hg31 mi
1:00 AM49 °FClear.1 mph85%30.03 "Hg37 mi
12:00 AM53 °FPassing clouds.3 mph77%30.03 "Hg43 mi
11:00 PM
Aug 20
54 °FPassing clouds.5 mph79%30.02 "Hg43 mi
10:00 PM53 °FOvercast.1 mph85%30.01 "HgN/A
Weather by CustomWeather, © 2014

See weather overviewHow to use our weather pages